Time,TemperatureF,DewpointF,PressureIn,WindDirection,WindDirectionDegrees,WindSpeedMPH,WindSpeedGustMPH,Humidity,HourlyPrecipIn,Conditions,Clouds,dailyrainin,SoftwareType,DateUTC
2013-05-02 00:01:00,45.0,-3.0,30.00,WNW,299,5.0,-999.0,13,-99.99,,,-99.99,,2013-05-02 06:01:00,
2013-05-02 00:12:00,45.0,-3.0,30.00,WNW,299,5.0,-999.0,13,-99.99,,,-99.99,,2013-05-02 06:12:00,
2013-05-02 00:21:00,45.0,-3.0,29.98,WNW,282,6.0,-999.0,13,-99.99,,,-99.99,,2013-05-02 06:21:00,
2013-05-02 00:31:00,44.0,-2.0,29.99,NW,309,5.0,-999.0,14,-99.99,,,-99.99,,2013-05-02 06:31:00,
2013-05-02 00:42:00,44.0,-2.0,29.99,NW,309,5.0,-999.0,14,-99.99,,,-99.99,,2013-05-02 06:42:00,
2013-05-02 00:52:00,43.0,-1.0,29.99,NNE,23,2.0,-999.0,15,-99.99,,,-99.99,,2013-05-02 06:52:00,
2013-05-02 01:01:00,44.0,-1.0,30.03,NW,312,5.0,-999.0,15,-99.99,,,-99.99,,2013-05-02 07:01:00,
2013-05-02 01:11:00,44.0,-1.0,30.03,NW,312,5.0,-999.0,15,-99.99,,,-99.99,,2013-05-02 07:11:00,
2013-05-02 01:21:00,45.0,-1.0,30.02,North,359,7.0,-999.0,14,-99.99,,,-99.99,,2013-05-02 07:21:00,
2013-05-02 01:31:00,41.0,-2.0,30.05,NNE,32,2.0,-999.0,16,-99.99,,,-99.99,,2013-05-02 07:31:00,
2013-05-02 01:41:00,41.0,-2.0,30.05,NNE,32,2.0,-999.0,16,-99.99,,,-99.99,,2013-05-02 07:41:00,
2013-05-02 01:51:00,40.0,-1.0,30.07,NE,44,1.0,-999.0,17,-99.99,,,-99.99,,2013-05-02 07:51:00,
2013-05-02 02:02:00,38.0,1.0,30.06,North,351,1.0,-999.0,20,-99.99,,,-99.99,,2013-05-02 08:02:00,
2013-05-02 02:11:00,38.0,1.0,30.06,North,351,1.0,-999.0,20,-99.99,,,-99.99,,2013-05-02 08:11:00,
2013-05-02 02:21:00,37.0,1.0,30.07,North,353,2.0,-999.0,21,-99.99,,,-99.99,,2013-05-02 08:21:00,
2013-05-02 02:32:00,35.0,0.0,30.09,NE,46,1.0,-999.0,22,-99.99,,,-99.99,,2013-05-02 08:32:00,
2013-05-02 02:42:00,35.0,0.0,30.09,NE,46,1.0,-999.0,22,-99.99,,,-99.99,,2013-05-02 08:42:00,
2013-05-02 02:52:00,36.0,1.0,30.09,NE,46,0.0,-999.0,22,-99.99,,,-99.99,,2013-05-02 08:52:00,
2013-05-02 03:02:00,38.0,2.0,30.08,NE,39,1.0,-999.0,21,-99.99,,,-99.99,,2013-05-02 09:02:00,
2013-05-02 03:11:00,38.0,2.0,30.08,NE,39,1.0,-999.0,21,-99.99,,,-99.99,,2013-05-02 09:11:00,
2013-05-02 03:21:00,37.0,3.0,30.09,North,9,2.0,-999.0,23,-99.99,,,-99.99,,2013-05-02 09:21:00,
2013-05-02 03:32:00,37.0,3.0,30.11,NE,51,0.0,-999.0,23,-99.99,,,-99.99,,2013-05-02 09:32:00,
2013-05-02 03:42:00,37.0,3.0,30.11,NE,51,0.0,-999.0,23,-99.99,,,-99.99,,2013-05-02 09:42:00,
2013-05-02 03:52:00,36.0,3.0,30.11,NE,51,0.0,-999.0,24,-99.99,,,-99.99,,2013-05-02 09:52:00,
2013-05-02 04:02:00,36.0,4.0,30.12,ENE,68,0.0,-999.0,25,-99.99,,,-99.99,,2013-05-02 10:02:00,
2013-05-02 04:12:00,36.0,4.0,30.12,ENE,68,0.0,-999.0,25,-99.99,,,-99.99,,2013-05-02 10:12:00,
2013-05-02 04:22:00,35.0,5.0,30.12,ENE,68,0.0,-999.0,28,-99.99,,,-99.99,,2013-05-02 10:22:00,
2013-05-02 04:32:00,35.0,4.0,30.12,ENE,68,0.0,-999.0,27,-99.99,,,-99.99,,2013-05-02 10:32:00,
2013-05-02 04:42:00,35.0,4.0,30.12,ENE,68,0.0,-999.0,27,-99.99,,,-99.99,,2013-05-02 10:42:00,
2013-05-02 04:52:00,33.0,4.0,30.13,NE,55,2.0,-999.0,29,-99.99,,,-99.99,,2013-05-02 10:52:00,
2013-05-02 05:02:00,33.0,3.0,30.15,North,11,1.0,-999.0,28,-99.99,,,-99.99,,2013-05-02 11:02:00,
2013-05-02 05:11:00,33.0,3.0,30.15,North,11,1.0,-999.0,28,-99.99,,,-99.99,,2013-05-02 11:11:00,
2013-05-02 05:21:00,32.0,5.0,30.17,North,11,0.0,-999.0,31,-99.99,,,-99.99,,2013-05-02 11:21:00,
2013-05-02 05:32:00,33.0,3.0,30.16,NE,48,2.0,-999.0,28,-99.99,,,-99.99,,2013-05-02 11:32:00,
2013-05-02 05:41:00,33.0,3.0,30.16,NE,48,2.0,-999.0,28,-99.99,,,-99.99,,2013-05-02 11:41:00,
2013-05-02 05:52:00,32.0,4.0,30.18,NNE,30,1.0,-999.0,30,-99.99,,,-99.99,,2013-05-02 11:52:00,
2013-05-02 06:01:00,31.0,5.0,30.20,North,8,2.0,-999.0,32,-99.99,,,-99.99,,2013-05-02 12:01:00,
2013-05-02 06:11:00,31.0,5.0,30.20,North,8,2.0,-999.0,32,-99.99,,,-99.99,,2013-05-02 12:11:00,
2013-05-02 06:21:00,30.0,4.0,30.22,NNW,337,2.0,-999.0,33,-99.99,,,-99.99,,2013-05-02 12:21:00,
2013-05-02 06:32:00,29.0,5.0,30.23,NNW,335,4.0,-999.0,35,-99.99,,,-99.99,,2013-05-02 12:32:00,
2013-05-02 06:42:00,29.0,5.0,30.23,NNW,335,4.0,-999.0,35,-99.99,,,-99.99,,2013-05-02 12:42:00,
2013-05-02 06:52:00,28.0,5.0,30.25,NNW,345,3.0,-999.0,36,-99.99,,,-99.99,,2013-05-02 12:52:00,
2013-05-02 07:01:00,29.0,6.0,30.28,NNW,345,0.0,-999.0,37,-99.99,,,-99.99,,2013-05-02 13:01:00,
2013-05-02 07:11:00,29.0,6.0,30.28,NNW,345,0.0,-999.0,37,-99.99,,,-99.99,,2013-05-02 13:11:00,
2013-05-02 07:21:00,31.0,7.0,30.29,NNW,345,0.0,-999.0,35,-99.99,,,-99.99,,2013-05-02 13:21:00,
2013-05-02 07:31:00,33.0,7.0,30.28,NNW,345,0.0,-999.0,33,-99.99,,,-99.99,,2013-05-02 13:31:00,
2013-05-02 07:41:00,33.0,7.0,30.28,NNW,345,0.0,-999.0,33,-99.99,,,-99.99,,2013-05-02 13:41:00,
2013-05-02 07:52:00,37.0,7.0,30.26,ENE,76,0.0,-999.0,28,-99.99,,,-99.99,,2013-05-02 13:52:00,
2013-05-02 08:02:00,38.0,7.0,30.29,ENE,76,1.0,-999.0,27,-99.99,,,-99.99,,2013-05-02 14:02:00,
2013-05-02 08:11:00,38.0,7.0,30.29,ENE,76,1.0,-999.0,27,-99.99,,,-99.99,,2013-05-02 14:11:00,
2013-05-02 08:21:00,41.0,8.0,30.28,ENE,75,0.0,-999.0,25,-99.99,,,-99.99,,2013-05-02 14:21:00,
2013-05-02 08:31:00,43.0,10.0,30.26,ENE,75,0.0,-999.0,25,-99.99,,,-99.99,,2013-05-02 14:31:00,
2013-05-02 08:42:00,43.0,10.0,30.26,ENE,75,0.0,-999.0,25,-99.99,,,-99.99,,2013-05-02 14:42:00,
2013-05-02 08:52:00,44.0,10.0,30.27,ENE,75,0.0,-999.0,24,-99.99,,,-99.99,,2013-05-02 14:52:00,
2013-05-02 09:02:00,45.0,8.0,30.27,ESE,106,1.0,-999.0,22,-99.99,,,-99.99,,2013-05-02 15:02:00,
2013-05-02 09:12:00,45.0,8.0,30.27,ESE,106,1.0,-999.0,22,-99.99,,,-99.99,,2013-05-02 15:12:00,
2013-05-02 09:21:00,46.0,9.0,30.25,SSW,197,1.0,-999.0,22,-99.99,,,-99.99,,2013-05-02 15:21:00,
2013-05-02 09:32:00,49.0,3.0,30.25,NNE,21,1.0,-999.0,15,-99.99,,,-99.99,,2013-05-02 15:32:00,
2013-05-02 09:43:00,49.0,3.0,30.25,NNE,21,1.0,-999.0,15,-99.99,,,-99.99,,2013-05-02 15:43:00,
2013-05-02 10:02:00,50.0,4.0,30.26,NNE,32,1.0,-999.0,15,-99.99,,,-99.99,,2013-05-02 16:02:00,
2013-05-02 10:13:00,50.0,4.0,30.26,NNE,32,1.0,-999.0,15,-99.99,,,-99.99,,2013-05-02 16:13:00,
2013-05-02 10:22:00,50.0,4.0,30.24,WSW,254,2.0,-999.0,15,-99.99,,,-99.99,,2013-05-02 16:22:00,
2013-05-02 10:32:00,50.0,4.0,30.24,South,189,4.0,-999.0,15,-99.99,,,-99.99,,2013-05-02 16:32:00,
2013-05-02 10:43:00,50.0,4.0,30.24,South,189,4.0,-999.0,15,-99.99,,,-99.99,,2013-05-02 16:43:00,
2013-05-02 10:52:00,51.0,5.0,30.25,West,259,3.0,-999.0,15,-99.99,,,-99.99,,2013-05-02 16:52:00,
2013-05-02 11:02:00,51.0,5.0,30.25,West,262,3.0,-999.0,15,-99.99,,,-99.99,,2013-05-02 17:02:00,
2013-05-02 11:12:00,51.0,5.0,30.25,West,262,3.0,-999.0,15,-99.99,,,-99.99,,2013-05-02 17:12:00,
2013-05-02 11:22:00,52.0,7.0,30.26,SW,231,4.0,-999.0,16,-99.99,,,-99.99,,2013-05-02 17:22:00,
2013-05-02 11:31:00,52.0,4.0,30.24,West,270,3.0,-999.0,14,-99.99,,,-99.99,,2013-05-02 17:31:00,
2013-05-02 11:42:00,52.0,4.0,30.24,West,270,3.0,-999.0,14,-99.99,,,-99.99,,2013-05-02 17:42:00,
2013-05-02 11:52:00,54.0,6.0,30.25,West,267,3.0,-999.0,14,-99.99,,,-99.99,,2013-05-02 17:52:00,
2013-05-02 12:01:00,54.0,7.0,30.24,SSW,199,4.0,-999.0,15,-99.99,,,-99.99,,2013-05-02 18:01:00,
2013-05-02 12:11:00,54.0,7.0,30.24,SSW,199,4.0,-999.0,15,-99.99,,,-99.99,,2013-05-02 18:11:00,
2013-05-02 12:21:00,55.0,5.0,30.22,South,173,2.0,-999.0,13,-99.99,,,-99.99,,2013-05-02 18:21:00,
2013-05-02 12:31:00,54.0,4.0,30.23,WSW,252,5.0,-999.0,13,-99.99,,,-99.99,,2013-05-02 18:31:00,
2013-05-02 12:41:00,54.0,4.0,30.23,WSW,252,5.0,-999.0,13,-99.99,,,-99.99,,2013-05-02 18:41:00,
2013-05-02 12:52:00,55.0,5.0,30.24,SSW,193,5.0,-999.0,13,-99.99,,,-99.99,,2013-05-02 18:52:00,
2013-05-02 13:01:00,55.0,7.0,30.24,SSW,194,7.0,-999.0,14,-99.99,,,-99.99,,2013-05-02 19:01:00,
2013-05-02 13:11:00,55.0,7.0,30.24,SSW,194,7.0,-999.0,14,-99.99,,,-99.99,,2013-05-02 19:11:00,
2013-05-02 13:21:00,56.0,6.0,30.22,West,274,4.0,-999.0,13,-99.99,,,-99.99,,2013-05-02 19:21:00,
2013-05-02 13:31:00,57.0,8.0,30.21,South,176,4.0,-999.0,14,-99.99,,,-99.99,,2013-05-02 19:31:00,
2013-05-02 13:41:00,57.0,8.0,30.21,South,176,4.0,-999.0,14,-99.99,,,-99.99,,2013-05-02 19:41:00,
2013-05-02 13:52:00,57.0,7.0,30.25,South,171,6.0,-999.0,13,-99.99,,,-99.99,,2013-05-02 19:52:00,
2013-05-02 14:01:00,59.0,6.0,30.24,SE,141,6.0,-999.0,12,-99.99,,,-99.99,,2013-05-02 20:01:00,
2013-05-02 14:11:00,59.0,6.0,30.24,SE,141,6.0,-999.0,12,-99.99,,,-99.99,,2013-05-02 20:11:00,
2013-05-02 14:21:00,58.0,4.0,30.22,WSW,252,5.0,-999.0,11,-99.99,,,-99.99,,2013-05-02 20:21:00,
2013-05-02 14:32:00,58.0,4.0,30.22,WNW,288,5.0,-999.0,11,-99.99,,,-99.99,,2013-05-02 20:32:00,
2013-05-02 14:41:00,58.0,4.0,30.22,WNW,288,5.0,-999.0,11,-99.99,,,-99.99,,2013-05-02 20:41:00,
2013-05-02 14:52:00,58.0,2.0,30.22,SW,233,5.0,-999.0,10,-99.99,,,-99.99,,2013-05-02 20:52:00,
2013-05-02 15:01:00,61.0,6.0,30.18,SSW,202,5.0,-999.0,11,-99.99,,,-99.99,,2013-05-02 21:01:00,
2013-05-02 15:11:00,61.0,6.0,30.18,SSW,202,5.0,-999.0,11,-99.99,,,-99.99,,2013-05-02 21:11:00,
2013-05-02 15:21:00,60.0,3.0,30.17,SW,231,5.0,-999.0,10,-99.99,,,-99.99,,2013-05-02 21:21:00,
2013-05-02 15:33:00,60.0,3.0,30.17,SW,231,5.0,-999.0,10,-99.99,,,-99.99,,2013-05-02 21:33:00,
2013-05-02 15:42:00,60.0,3.0,30.17,SW,231,5.0,-999.0,10,-99.99,,,-99.99,,2013-05-02 21:42:00,
2013-05-02 15:53:00,60.0,3.0,30.18,SSW,203,5.0,-999.0,10,-99.99,,,-99.99,,2013-05-02 21:53:00,
2013-05-02 16:02:00,61.0,2.0,30.18,SW,216,7.0,-999.0,9,-99.99,,,-99.99,,2013-05-02 22:02:00,
2013-05-02 16:12:00,61.0,2.0,30.18,SW,216,7.0,-999.0,9,-99.99,,,-99.99,,2013-05-02 22:12:00,
2013-05-02 16:22:00,61.0,2.0,30.15,WSW,248,9.0,-999.0,9,-99.99,,,-99.99,,2013-05-02 22:22:00,
2013-05-02 16:32:00,61.0,2.0,30.15,SSW,209,10.0,-999.0,9,-99.99,,,-99.99,,2013-05-02 22:32:00,
2013-05-02 16:42:00,61.0,2.0,30.15,SSW,209,10.0,-999.0,9,-99.99,,,-99.99,,2013-05-02 22:42:00,
2013-05-02 16:52:00,61.0,4.0,30.16,SSW,206,11.0,-999.0,10,-99.99,,,-99.99,,2013-05-02 22:52:00,
2013-05-02 17:02:00,62.0,3.0,30.15,SSW,205,9.0,-999.0,9,-99.99,,,-99.99,,2013-05-02 23:02:00,
2013-05-02 17:11:00,62.0,3.0,30.15,SSW,205,9.0,-999.0,9,-99.99,,,-99.99,,2013-05-02 23:11:00,
2013-05-02 17:22:00,62.0,3.0,30.15,SSW,205,9.0,-999.0,9,-99.99,,,-99.99,,2013-05-02 23:22:00,
2013-05-02 17:31:00,62.0,3.0,30.14,SW,233,9.0,-999.0,9,-99.99,,,-99.99,,2013-05-02 23:31:00,
2013-05-02 17:42:00,62.0,3.0,30.14,SW,233,9.0,-999.0,9,-99.99,,,-99.99,,2013-05-02 23:42:00,
2013-05-02 17:51:00,62.0,0.0,30.14,West,259,13.0,-999.0,8,-99.99,,,-99.99,,2013-05-02 23:51:00,
2013-05-02 18:01:00,62.0,0.0,30.15,WSW,238,12.0,-999.0,8,-99.99,,,-99.99,,2013-05-03 00:01:00,
2013-05-02 18:11:00,62.0,0.0,30.15,WSW,238,12.0,-999.0,8,-99.99,,,-99.99,,2013-05-03 00:11:00,
2013-05-02 18:21:00,62.0,0.0,30.15,WSW,243,14.0,-999.0,8,-99.99,,,-99.99,,2013-05-03 00:21:00,
2013-05-02 18:31:00,62.0,0.0,30.15,SW,229,12.0,-999.0,8,-99.99,,,-99.99,,2013-05-03 00:31:00,
2013-05-02 18:41:00,62.0,0.0,30.15,SW,229,12.0,-999.0,8,-99.99,,,-99.99,,2013-05-03 00:41:00,
2013-05-02 18:52:00,62.0,0.0,30.14,SW,230,13.0,-999.0,8,-99.99,,,-99.99,,2013-05-03 00:52:00,
2013-05-02 19:01:00,61.0,-4.0,30.10,SSW,210,14.0,-999.0,7,-99.99,,,-99.99,,2013-05-03 01:01:00,
2013-05-02 19:11:00,61.0,-4.0,30.10,SSW,210,14.0,-999.0,7,-99.99,,,-99.99,,2013-05-03 01:11:00,
2013-05-02 19:21:00,61.0,-4.0,30.11,SW,229,12.0,-999.0,7,-99.99,,,-99.99,,2013-05-03 01:21:00,
2013-05-02 19:31:00,60.0,-1.0,30.11,WSW,245,14.0,-999.0,8,-99.99,,,-99.99,,2013-05-03 01:31:00,
2013-05-02 19:41:00,60.0,-1.0,30.11,WSW,245,14.0,-999.0,8,-99.99,,,-99.99,,2013-05-03 01:41:00,
2013-05-02 19:52:00,60.0,-1.0,30.11,WSW,255,11.0,-999.0,8,-99.99,,,-99.99,,2013-05-03 01:52:00,
2013-05-02 20:01:00,59.0,-2.0,30.07,WSW,257,10.0,-999.0,8,-99.99,,,-99.99,,2013-05-03 02:01:00,
2013-05-02 20:11:00,59.0,-2.0,30.07,WSW,257,10.0,-999.0,8,-99.99,,,-99.99,,2013-05-03 02:11:00,
2013-05-02 20:21:00,58.0,0.0,30.07,WSW,253,8.0,-999.0,9,-99.99,,,-99.99,,2013-05-03 02:21:00,
2013-05-02 20:31:00,56.0,0.0,30.09,WSW,252,6.0,-999.0,10,-99.99,,,-99.99,,2013-05-03 02:31:00,
2013-05-02 20:41:00,56.0,0.0,30.09,WSW,252,6.0,-999.0,10,-99.99,,,-99.99,,2013-05-03 02:41:00,
2013-05-02 20:52:00,54.0,-1.0,30.10,SW,235,3.0,-999.0,10,-99.99,,,-99.99,,2013-05-03 02:52:00,
2013-05-02 21:01:00,53.0,0.0,30.06,West,263,4.0,-999.0,11,-99.99,,,-99.99,,2013-05-03 03:01:00,
2013-05-02 21:11:00,53.0,0.0,30.06,West,263,4.0,-999.0,11,-99.99,,,-99.99,,2013-05-03 03:11:00,
2013-05-02 21:21:00,53.0,0.0,30.07,West,260,3.0,-999.0,11,-99.99,,,-99.99,,2013-05-03 03:21:00,
2013-05-02 21:33:00,52.0,-1.0,30.08,West,266,3.0,-999.0,11,-99.99,,,-99.99,,2013-05-03 03:33:00,
2013-05-02 21:42:00,52.0,-1.0,30.08,West,266,3.0,-999.0,11,-99.99,,,-99.99,,2013-05-03 03:42:00,
2013-05-02 21:52:00,52.0,-1.0,30.09,West,266,1.0,-999.0,11,-99.99,,,-99.99,,2013-05-03 03:52:00,
2013-05-02 22:02:00,51.0,0.0,30.09,West,271,0.0,-999.0,12,-99.99,,,-99.99,,2013-05-03 04:02:00,
2013-05-02 22:12:00,51.0,0.0,30.09,West,271,0.0,-999.0,12,-99.99,,,-99.99,,2013-05-03 04:12:00,
2013-05-02 22:22:00,49.0,0.0,30.11,WSW,257,1.0,-999.0,13,-99.99,,,-99.99,,2013-05-03 04:22:00,
2013-05-02 22:32:00,48.0,-2.0,30.11,WSW,248,3.0,-999.0,12,-99.99,,,-99.99,,2013-05-03 04:32:00,
2013-05-02 22:42:00,48.0,-2.0,30.11,WSW,248,3.0,-999.0,12,-99.99,,,-99.99,,2013-05-03 04:42:00,
2013-05-02 22:52:00,48.0,-2.0,30.12,WSW,257,3.0,-999.0,12,-99.99,,,-99.99,,2013-05-03 04:52:00,
2013-05-02 23:02:00,47.0,-1.0,30.11,West,269,4.0,-999.0,13,-99.99,,,-99.99,,2013-05-03 05:02:00,
2013-05-02 23:12:00,47.0,-1.0,30.11,West,269,4.0,-999.0,13,-99.99,,,-99.99,,2013-05-03 05:12:00,
2013-05-02 23:21:00,47.0,0.0,30.11,WNW,285,4.0,-999.0,14,-99.99,,,-99.99,,2013-05-03 05:21:00,
2013-05-02 23:32:00,45.0,0.0,30.11,WSW,257,1.0,-999.0,15,-99.99,,,-99.99,,2013-05-03 05:32:00,
2013-05-02 23:42:00,45.0,0.0,30.11,WSW,257,1.0,-999.0,15,-99.99,,,-99.99,,2013-05-03 05:42:00,
2013-05-02 23:52:00,44.0,-1.0,30.13,WSW,257,0.0,-999.0,15,-99.99,,,-99.99,,2013-05-03 05:52:00,